Regional Weather Roundup
Issued by NWS

Home | Current Version | Previous Version | Graphics & Text | Print | Product List | Glossary On
Versions: 1 2 3 4 5 6 7 8 9 10 11 12 13 14 15 16 17 18 19 20 21 22 23 24 25 26 27 28 29 30 31 32 33 34 35 36 37 38 39 40 41 42 43 44 45 46 47 48 49 50
000
ASUS43 KLSX 100907
RWRMO

WEATHER SUMMARY FOR MISSOURI
NATIONAL WEATHER SERVICE SPRINGFIELD MO
300 AM CST SAT DEC 10 2016

NOTE: "FAIR" INDICATES FEW OR NO CLOUDS BELOW 12,000 FEET WITH NO
       SIGNIFICANT WEATHER AND/OR OBSTRUCTIONS TO VISIBILITY.
       CURRENT SKY AND/OR WEATHER CONDITIONS ARE NOT AVAILABLE FOR
       CHILLICOTHE AND FARMINGTON.

MOZ001>031-035>038-043-044-053-054-101000-
...NORTHERN AND WESTERN MISSOURI...

CITY           SKY/WX    TMP DP  RH WIND       PRES   REMARKS
KANSAS CTY INT CLOUDY    26  11  52 SE5       30.49S WCI  20
KANSAS C DTWN  CLOUDY    27  12  53 E3        30.50F
LEE`S SUMMIT   CLOUDY    26  14  60 SE5       30.49F WCI  20
ST JOSEPH      CLOUDY    26  14  60 SE6       30.49F WCI  19
CHILLICOTHE      N/A     25  11  55 SE3       30.54R
KIRKSVILLE     CLOUDY    23  17  78 SE3       30.53F

$$
MOZ066>068-077>081-088>096-101>105-101000-
...SOUTHWEST MISSOURI...

CITY           SKY/WX    TMP DP  RH WIND       PRES   REMARKS
SPRINGFIELD    CLEAR     24  14  65 SE6       30.48R WCI  17
JOPLIN         CLOUDY    32  18  56 CALM      30.50R
BRANSON        CLOUDY    28  16  59 SE3       30.50R

$$
MOZ032>034-039>042-045>050-055>058-069>072-101000-
...CENTRAL MISSOURI...

CITY           SKY/WX    TMP DP  RH WIND       PRES   REMARKS
COLUMBIA       CLOUDY    24  12  60 SE5       30.54R WCI  18
JEFFERSON CITY CLOUDY    26  13  57 SE5       30.57R WCI  20
ROLLA          CLOUDY    23  14  68 E5        30.51S WCI  17
SEDALIA        CLOUDY    26  12  55 SE7       30.53S WCI  18
WHITEMAN AFB   CLOUDY    26  13  59 E3        30.50F
WARRENSBURG    CLOUDY    27  14  59 E5        30.51F WCI  21
OSAGE BEACH    CLOUDY    26  14  60 E3        30.54R

$$
MOZ051-052-059>065-101000-
...EAST CENTRAL MISSOURI...

CITY           SKY/WX    TMP DP  RH WIND       PRES   REMARKS
ST LOUIS INTL  CLOUDY    26  14  60 S3        30.58R
SPIRIT OF STL  CLOUDY    25  18  74 W3        30.59R
ST CHARLES     CLOUDY    25  18  74 CALM      30.59R

$$
MOZ072>076-082>087-097>100-106>115-101000-
...SOUTH CENTRAL AND SOUTHEAST MISSOURI...

CITY           SKY/WX    TMP DP  RH WIND       PRES   REMARKS
CAPE GIRARDEAU CLEAR     19  16  88 CALM      30.60R
FARMINGTON     CLEAR     17  14  88 CALM      30.55S
POPLAR BLUFF   CLEAR     20  18  92 CALM      30.59S
WEST PLAINS    CLEAR     21  13  71 S3        30.52S

$$



USA.gov is the U.S. government's official web portal to all federal, state and local government web resources and services.